Terminal Aerodrome Forecast
Issued by NWS Columbia, SC

Home | Current Version | Previous Version | Text Only | Print | Product List | Glossary On
Versions: 1 2 3 4 5 6 7 8 9 10 11 12 13 14 15 16 17 18 19 20 21 22 23 24 25 26 27 28 29 30 31 32 33 34 35 36 37 38 39 40 41 42 43 44 45 46 47
000
FTUS42 KCAE 181500 AAB
TAFAGS
TAF AMD
KAGS 181508Z 1815/1912 VRB04KT 2SM RA BR BKN004 OVC015
     FM181700 VRB04KT P6SM VCSH BKN020
     FM181900 VRB04KT P6SM VCSH BKN035
     FM190600 12006KT 3SM RA OVC008=

USA.gov is the U.S. government's official web portal to all federal, state and local government web resources and services.